{"data":{"norad_id":41174,"intl_designator":"2015-079A","name":"GSAT0209 (GALILEO 12)","alt_names":[],"object_type":"PAYLOAD","status":"ACTIVE","operator":null,"country":"ESA","launch_date":"2015-12-17","launch_site_code":"FRGUI","launch_vehicle":null,"mission":null,"orbit_class":"UNKNOWN","rcs_meters":6.7254,"size_class":null,"mass_kg":null,"dimensions":null,"purposes":["earth_obs","nav"],"wikipedia_slug":null,"has_3d_model":false,"image_url":null,"decayed_at":null,"tle_current":{"epoch":"2026-05-23T23:43:45.984288Z","epoch_age_seconds":173127,"freshness":"STALE","line1":"1 41174U 15079A   26143.98872667  .00000018  00000+0  00000+0 0  9995","line2":"2 41174  55.8138 101.9249 0005590 335.9950  23.9396  1.70473875 64361","mean_motion":1.70473875,"eccentricity":0.000559,"inclination_deg":55.8138,"raan_deg":101.9249,"arg_perigee_deg":335.995,"mean_anomaly_deg":23.9396,"bstar":0,"rev_number":6436,"period_min":844.70421054252,"perigee_km":23205.650940189,"apogee_km":23238.744114191,"semimajor_km":29600.33452719,"source":"CELESTRAK","updated_at":"2026-05-25T13:38:24.055186Z"}}}